Home   Weather   Las Cruces   Past weeks

Flag for USA Past Weather in Las Cruces, New Mexico, USA — Yesterday and Last 2 Weeks

Now
53 °F

Sunny.


Feels Like: 51 °F
Forecast: 34 / 62 °F
Wind: 6 mph from South

Location: Las Cruces International

Current Time: Jan 23, 2017 at 12:13:38 pm

Latest Report: Jan 23, 2017 at 11:35 am


Visibility: 10 mi

Pressure: 30.03 "Hg (26.04 "Hg at 1187m altitude)

Humidity: 45%

Dew Point: 32 °F

Location of Las CrucesLocation

Past Weather in Las Cruces — Graph

°F

Las Cruces Temperature Yesterday

Maximum temperature yesterday: 51 °F (at 3:15 pm)
Minimum temperature yesterday: 32 °F (at 6:15 am)
Average temperature yesterday: 41 °F

High & Low Weather Summary for the Past Weeks

 TemperatureHumidityPressure
High68 °F (Jan 11, 3:15 pm)100% (Jan 18, 6:55 am)30.48 "Hg (Jan 18, 6:55 am)
Low32 °F (Jan 22, 6:15 am)12% (Jan 12, 2:15 pm)29.54 "Hg (Jan 21, 4:15 am)
Average47 °F61%30.04 "Hg
* Reported Jan 8 10:15 am — Jan 23 10:55 am, Las Cruces, Weather by CustomWeather, © 2017

Note: Actual official high and low records may vary slightly from our data, if they occured in-between our weather recording intervals... More about our weather records

Advertising

Las Cruces Weather History for the Previous 24 Hours

Scroll right to see more
 ConditionsComfort  
Time TempWeatherWind HumidityBarometerVisibility
10:55 am
Mon, Jan 23
50 °FSunny.3 mph49%30.06 "Hg10 mi
10:35 am49 °FSunny.No wind51%30.07 "Hg10 mi
10:15 am48 °FSunny.6 mph51%30.08 "Hg10 mi
9:55 am46 °FSunny.No wind55%30.08 "Hg10 mi
9:35 am46 °FSunny.No wind56%30.08 "Hg10 mi
9:15 am44 °FSunny.No wind59%30.07 "Hg10 mi
8:55 am43 °FSunny.No wind60%30.07 "Hg10 mi
8:35 am42 °FSunny.No wind61%30.07 "Hg10 mi
8:15 am41 °FSunny.No wind64%30.07 "Hg10 mi
7:55 am37 °FSunny.No wind79%30.06 "Hg10 mi
7:35 am32 °FSunny.No wind86%30.06 "Hg10 mi
7:15 am32 °FSunny.3 mph81%30.06 "Hg10 mi
6:55 am33 °FClear.3 mph78%30.07 "Hg10 mi
6:35 am35 °FClear.5 mph73%30.06 "Hg10 mi
6:15 am34 °FClear.No wind75%30.06 "Hg10 mi
5:55 am35 °FClear.No wind74%30.05 "Hg10 mi
5:35 am34 °FClear.3 mph77%30.05 "Hg10 mi
5:15 am34 °FClear.5 mph78%30.06 "Hg10 mi
4:55 am35 °FClear.6 mph76%30.07 "Hg10 mi
4:35 am36 °FClear.7 mph72%30.07 "Hg10 mi
4:15 am36 °FClear.9 mph74%30.08 "Hg10 mi
3:55 am35 °FClear.10 mph75%30.08 "Hg10 mi
3:35 am36 °FClear.9 mph73%30.08 "Hg10 mi
3:15 am36 °FClear.9 mph74%30.09 "Hg10 mi
2:55 am38 °FClear.7 mph69%30.09 "Hg10 mi
2:35 am39 °FClear.10 mph63%30.09 "Hg10 mi
2:15 am38 °FClear.10 mph67%30.09 "Hg10 mi
1:55 am38 °FClear.10 mph70%30.10 "Hg10 mi
1:35 am38 °FClear.10 mph71%30.10 "Hg10 mi
1:15 am37 °FClear.10 mph75%30.11 "Hg10 mi
12:55 am38 °FClear.9 mph75%30.12 "Hg10 mi
12:35 am38 °FClear.10 mph73%30.12 "Hg10 mi
12:15 am39 °FClear.9 mph72%30.13 "Hg10 mi
11:55 pm
Sun, Jan 22
38 °FClear.9 mph74%30.14 "Hg10 mi
11:35 pm39 °FClear.9 mph71%30.15 "Hg10 mi
11:15 pm39 °FClear.9 mph70%30.15 "Hg10 mi
10:55 pm40 °FClear.12 mph68%30.15 "Hg10 mi
10:35 pm40 °FClear.10 mph66%30.15 "Hg10 mi
9:55 pm41 °FClear.10 mph62%30.15 "Hg10 mi
9:35 pm42 °FClear.13 mph59%30.14 "Hg10 mi
9:15 pm43 °FClear.16 mph55%30.14 "Hg10 mi
8:55 pm44 °FClear.15 mph52%30.13 "Hg10 mi
8:35 pm44 °FClear.14 mph51%30.13 "Hg10 mi
8:15 pm44 °FClear.12 mph49%30.13 "Hg10 mi
7:55 pm45 °FClear.10 mph48%30.13 "Hg10 mi
7:35 pm45 °FClear.9 mph49%30.14 "Hg10 mi
7:15 pm45 °FClear.13 mph49%30.13 "Hg10 mi
6:55 pm46 °FClear.13 mph47%30.13 "Hg10 mi
6:35 pm46 °FPassing clouds.10 mph46%30.14 "Hg10 mi
6:15 pm46 °FClear.7 mph46%30.15 "Hg10 mi
5:55 pm47 °FClear.14 mph46%30.14 "Hg10 mi
5:15 pm49 °FSunny.15 mph44%30.14 "Hg10 mi
4:55 pm50 °FSunny.10 mph43%30.15 "Hg10 mi
4:35 pm50 °FSunny.15 mph44%30.14 "Hg10 mi
4:15 pm51 °FSunny.13 mph43%30.13 "Hg10 mi
3:55 pm51 °FScattered clouds.12 mph41%30.13 "Hg10 mi
3:35 pm51 °FScattered clouds.12 mph41%30.13 "Hg10 mi
3:15 pm51 °FSunny.8 mph38%30.13 "Hg10 mi
2:55 pm51 °FSunny.12 mph42%30.13 "Hg10 mi
2:35 pm51 °FSunny.15 mph40%30.13 "Hg10 mi
2:15 pm50 °FSunny.14 mph40%30.14 "Hg10 mi
1:55 pm50 °FSunny.13 mph47%30.15 "Hg10 mi
1:35 pm49 °FSunny.12 mph48%30.15 "Hg10 mi
1:15 pm48 °FSunny.10 mph51%30.16 "Hg10 mi
12:55 pm47 °FSunny.10 mph52%30.17 "Hg10 mi
12:35 pm46 °FSunny.9 mph49%30.18 "Hg10 mi
Weather by CustomWeather, © 2017

See weather overviewHow to use our weather pages